Location: Ailly
(50.0793°N, 1.9944°E)
Time: 11:21:03
(UTC+00:00)

Helios 1A Rocket - Pass Details

Date: 15 January 2026
Orbit: 425 x 435 km, 98.3° (Epoch: 16 February)

Event Time Altitude Azimuth Distance (km) Brightness Sun altitude
Rises 05:53:27 0° 174° (S) 2,442 6.4 -17.3°
Reaches altitude 10° 05:55:30 10° 179° (S) 1,576 5.3 -17.0°
Maximum altitude 05:58:48 54° 258° (WSW) 557 2.5 -16.4°
Enters shadow 06:00:04 32° 319° (NW) 791 3.2 -16.2°
